Overview Statistics Trail Chart Weather Telemetry Raw packets
 

This is the latest recevied weather packets stored in our database for station/object KK7MLS-13. If no packets are shown the sender has not sent any weather packets the latest 10 day(s).

<< 16 17 18 19 20 21 22 >>
Time Temp. Humidity Pressure Rain* Wind** Luminosity Snow
1788568640 15.56° C 87% 1014.6 hPa 0 mm - 68 W/m² -
1788568336 15.56° C 86% 1014.5 hPa 0 mm - 83 W/m² -
1788568031 15.56° C 87% 1014.6 hPa 0 mm - 78 W/m² -
1788567731 15.56° C 86% 1014.6 hPa 0 mm - 74 W/m² -
1788567426 15.56° C 86% 1014.7 hPa 0 mm - 63 W/m² -
1788567125 15.56° C 87% 1014.7 hPa 0 mm - 58 W/m² -
1788566821 15.56° C 88% 1014.7 hPa 0 mm - 49 W/m² -
1788566517 15.56° C 88% 1014.8 hPa 0 mm - 36 W/m² -
1788566216 15.56° C 87% 1014.7 hPa 0 mm - 33 W/m² -
1788565916 15.56° C 87% 1014.8 hPa 0 mm - 23 W/m² -
1788565612 15.56° C 85% 1014.8 hPa 0 mm - 34 W/m² -
1788565307 16.11° C 84% 1014.7 hPa 0 mm - 57 W/m² -
1788565003 16.11° C 84% 1014.7 hPa 0 mm - 74 W/m² -
1788564698 16.11° C 85% 1014.5 hPa 0 mm - 78 W/m² -
1788564395 16.11° C 84% 1014.6 hPa 0 mm - 75 W/m² -
1788564091 16.11° C 80% 1014.4 hPa 0 mm - 68 W/m² -
1788563786 16.67° C 83% 1014.4 hPa 0 mm - 69 W/m² -
1788563481 16.67° C 79% 1014.4 hPa 0 mm - 91 W/m² -
1788563174 17.22° C 78% 1014.4 hPa 0 mm - 101 W/m² -
1788562870 17.22° C 82% 1014.2 hPa 0 mm - 160 W/m² -
1788562567 17.22° C 80% 1014.3 hPa 0 mm - 160 W/m² -
1788562262 16.67° C 85% 1014.3 hPa 1.27 mm - 398 W/m² -
1788561957 16.11° C 89% 1014.4 hPa 1.27 mm - 395 W/m² -
1788561652 15.56° C 87% 1014.2 hPa 1.78 mm - 267 W/m² -
1788561351 15.56° C 85% 1014.2 hPa 3.05 mm - 212 W/m² -

* Rain latest hour (hover to see other rain measurements)
** Current wind speed in m/s (hover to see current wind gust speed)